Waarnemingen

Advertentie
Mijn weer
La Roda de Andalucia, Spanje (8399): temperatuur & dauwpunt: 07.12.2017 00:00:00 - 13.12.2017 00:00:00 (CET)La Roda de Andalucia, Spanje (8399): windsnelheid & windstoten: 07.12.2017 00:00:00 - 13.12.2017 00:00:00 (CET)La Roda de Andalucia, Spanje (8399): windrichting: 07.12.2017 00:00:00 - 13.12.2017 00:00:00 (CET)La Roda de Andalucia, Spanje (8399): luchtdruk: 07.12.2017 00:00:00 - 13.12.2017 00:00:00 (CET)La Roda de Andalucia, Spanje (8399): zicht: 07.12.2017 00:00:00 - 13.12.2017 00:00:00 (CET)La Roda de Andalucia, Spanje (8399): Zonneschijnduur: 07.12.2017 00:00:00 - 13.12.2017 00:00:00 (CET)La Roda de Andalucia, Spanje (8399): neerslag: 07.12.2017 00:00:00 - 13.12.2017 00:00:00 (CET)
Datum & Tijd tt [°C] td [°C] ff [km/u] ff [kn] fx [km/u] fx [kn] dd ppp [hPa] vv [km] sd [min] rr [mm]
13.12.2017 00:00:00 0,1 -1,4 1 1 9 5 W 1026,3 6 0 0,0
12.12.2017 23:00:00 0,8 -0,7 8 4 11 6 Z 1025,4 20 0 0,0
12.12.2017 22:00:00 1,4 -0,3 8 4 10 5 Z 1024,7 14 0 0,0
12.12.2017 21:00:00 2,3 0,2 5 3 9 5 Z 1024,0 17 0 0,0
12.12.2017 20:00:00 3,8 0,4 6 3 10 6 Z 1022,9 20 0 0,0
12.12.2017 19:00:00 5,3 0,6 3 2 11 6 NNW 1021,7 20 0 -
12.12.2017 18:00:00 8,4 -0,5 10 5 27 15 NNW 1020,4 20 19 0,0
12.12.2017 17:00:00 10,0 -1,4 12 6 37 20 N 1019,3 20 60 0,0
12.12.2017 16:00:00 10,7 -1,7 19 10 36 19 N 1018,1 20 60 0,0
12.12.2017 15:00:00 11,2 -1,7 15 8 32 17 N 1017,4 20 60 0,0
12.12.2017 14:00:00 10,6 -0,5 17 9 32 18 N 1016,8 20 60 0,0
12.12.2017 13:00:00 9,3 2,7 16 9 31 17 N 1017,3 20 60 -
12.12.2017 12:00:00 8,0 3,0 13 7 25 13 N 1017,5 20 60 0,0
12.12.2017 11:00:00 6,8 2,9 13 7 22 12 N 1017,6 20 60 0,0
12.12.2017 10:00:00 5,6 2,5 13 7 21 12 N 1016,6 20 60 0,0
12.12.2017 09:00:00 4,3 2,1 8 5 25 13 NNW 1015,8 20 9 0,0
12.12.2017 08:00:00 4,2 1,9 13 7 21 12 NNW 1014,9 20 0 0,0
12.12.2017 07:00:00 4,1 2,1 4 2 14 7 N 1013,7 20 0 -
12.12.2017 06:00:00 5,0 2,5 6 4 14 8 NNW 1012,5 20 0 0,0
12.12.2017 05:00:00 4,8 3,2 8 4 15 8 W 1011,7 20 0 0,0
12.12.2017 04:00:00 4,8 3,2 9 5 18 10 W 1010,8 20 0 0,0
12.12.2017 03:00:00 5,6 3,9 6 3 14 8 ZW 1010,6 20 0 0,0
12.12.2017 02:00:00 5,8 3,9 8 4 20 11 W 1010,0 20 0 0,0
12.12.2017 01:00:00 6,2 4,1 5 3 19 10 W 1009,5 19 0 -
12.12.2017 00:00:00 6,9 4,8 7 4 14 7 W 1008,7 20 0 0,0
11.12.2017 23:00:00 7,5 4,5 5 3 23 12 ZW 1007,9 20 0 0,0
11.12.2017 22:00:00 7,9 4,1 6 3 13 7 W 1007,2 20 0 0,0
11.12.2017 21:00:00 8,6 3,4 4 2 21 12 ZW 1006,5 20 0 0,0
11.12.2017 20:00:00 8,1 3,8 11 6 21 12 Z 1006,1 20 0 0,0
11.12.2017 19:00:00 8,3 3,9 6 3 18 10 ZZW 1005,4 20 0 -
11.12.2017 18:00:00 9,0 4,6 8 5 29 15 ZW 1004,6 20 9 0,0
11.12.2017 17:00:00 9,6 4,6 11 6 38 21 W 1004,0 20 16 0,0
11.12.2017 16:00:00 10,1 4,6 15 8 40 22 W 1003,4 20 14 0,0
11.12.2017 15:00:00 9,9 4,3 19 10 33 18 W 1003,1 20 40 0,0
11.12.2017 14:00:00 8,9 5,0 16 9 29 16 W 1003,4 20 7 0,0
11.12.2017 13:00:00 8,1 5,6 9 5 19 11 W 1004,4 20 0 -
11.12.2017 12:00:00 7,6 5,0 6 4 16 9 N 1004,6 - 0 0,0
11.12.2017 11:00:00 6,9 5,1 5 3 32 17 WNW 1004,4 - 0 1,4
11.12.2017 10:00:00 6,7 5,1 7 4 39 21 WZW 1003,7 - 0 5,2
11.12.2017 09:00:00 7,0 5,0 18 10 50 27 WNW 1003,8 - 0 4,6
11.12.2017 08:00:00 8,6 7,0 25 14 88 47 NNW 1000,8 - 0 7,6
11.12.2017 07:00:00 13,3 9,3 20 11 50 27 ZZW 997,2 - 0 -
11.12.2017 06:00:00 14,7 7,7 23 13 60 32 ZZW 997,9 - 0 0,0
11.12.2017 05:00:00 14,5 8,4 33 18 68 37 ZZW 999,2 - 0 0,0
11.12.2017 04:00:00 13,5 9,3 21 11 48 26 ZW 1002,5 - 0 0,6
11.12.2017 03:00:00 13,6 9,4 16 9 59 32 ZW 1004,5 - 0 0,0
11.12.2017 02:00:00 14,2 9,7 25 13 58 32 WZW 1006,1 - 0 0,0
11.12.2017 01:00:00 12,6 10,3 9 5 26 14 ZZW 1007,9 - 0 -
11.12.2017 00:00:00 12,8 10,5 13 7 42 23 ZW 1009,4 - 0 0,6
10.12.2017 23:00:00 14,0 9,4 18 10 50 27 ZW 1010,7 - 0 0,0
10.12.2017 22:00:00 13,7 9,3 17 9 42 23 ZW 1011,3 - 0 0,0
10.12.2017 21:00:00 14,0 9,4 14 8 42 23 ZW 1013,0 - 0 0,0
10.12.2017 20:00:00 14,0 9,0 16 9 34 19 WZW 1014,3 - 0 0,0
10.12.2017 19:00:00 13,9 8,5 14 7 31 17 WZW 1014,6 - 0 -
10.12.2017 18:00:00 14,0 7,7 11 6 26 14 ZW 1015,0 - 0 0,0
10.12.2017 17:00:00 14,9 8,0 9 5 23 13 WZW 1015,9 - 27 0,0
10.12.2017 16:00:00 14,8 9,2 6 3 29 16 WZW 1017,2 - 17 0,0
10.12.2017 15:00:00 14,3 8,7 16 9 29 16 W 1019,6 - 0 0,0
10.12.2017 14:00:00 15,0 8,5 15 8 38 21 W 1019,9 - 38 0,0
10.12.2017 13:00:00 15,1 7,8 16 8 34 18 W 1020,5 - 47 -
10.12.2017 12:00:00 14,7 8,1 10 5 21 11 W 1022,1 - 37 0,0
10.12.2017 11:00:00 12,5 9,9 5 3 10 6 W 1023,5 - 3 0,0
10.12.2017 10:00:00 10,9 9,7 4 2 9 5 Z 1023,7 - 2 0,0
10.12.2017 09:00:00 10,3 8,9 3 1 15 8 Z 1023,7 - 0 0,0
10.12.2017 08:00:00 10,8 9,4 8 4 16 9 WZW 1024,0 - 0 0,0
10.12.2017 07:00:00 11,2 9,7 7 4 16 9 W 1023,9 - 0 -
10.12.2017 06:00:00 11,4 9,7 9 5 23 13 W 1024,0 - 0 0,0
10.12.2017 05:00:00 11,7 9,9 11 6 20 11 WNW 1024,8 - 0 0,0
10.12.2017 04:00:00 11,1 9,6 5 3 14 7 W 1024,8 - 0 0,0
10.12.2017 03:00:00 11,4 9,8 3 2 9 5 O 1025,1 - 0 0,0
10.12.2017 02:00:00 11,4 9,7 2 1 8 5 Z 1025,5 - 0 0,0
10.12.2017 01:00:00 11,6 9,6 4 2 9 5 OZO 1026,4 - 0 -
10.12.2017 00:00:00 11,5 9,6 4 2 8 4 ZZO 1026,8 - 0 0,0
09.12.2017 23:00:00 10,8 8,9 2 1 6 4 ZZW 1026,6 - 0 0,0
09.12.2017 22:00:00 11,1 9,0 4 2 9 5 Z 1026,4 - 0 0,0
09.12.2017 21:00:00 11,5 9,2 5 3 10 5 Z 1026,3 - 0 0,0
09.12.2017 20:00:00 12,0 9,6 4 2 8 4 ZZW 1026,3 - 0 0,0
09.12.2017 19:00:00 12,4 9,8 2 1 8 5 ZW 1025,7 - 0 -
09.12.2017 18:00:00 12,9 10,0 4 2 11 6 WZW 1025,5 - 0 0,0
09.12.2017 17:00:00 13,2 10,0 4 2 13 7 WZW 1025,3 - 0 0,0
09.12.2017 16:00:00 13,3 9,7 6 3 14 8 NW 1025,5 - 0 0,0
09.12.2017 15:00:00 13,5 9,3 7 4 14 8 N 1025,7 - 0 0,0
09.12.2017 14:00:00 13,2 8,7 3 1 8 4 NNO 1026,0 - 0 0,0
09.12.2017 13:00:00 12,0 7,7 6 4 14 8 NNW 1026,9 - 0 -
09.12.2017 12:00:00 12,6 9,0 5 3 13 7 NW 1027,3 - 0 0,0
09.12.2017 11:00:00 11,8 8,8 8 4 16 8 WNW 1027,5 - 0 0,0
09.12.2017 10:00:00 9,4 6,8 3 1 6 4 WZW 1027,6 - 0 0,0
09.12.2017 09:00:00 8,3 5,0 4 2 9 5 Z 1027,3 - 0 0,0
09.12.2017 08:00:00 7,5 4,8 6 3 10 5 Z 1027,1 - 0 0,0
09.12.2017 07:00:00 7,7 4,1 2 1 6 4 ZZO 1026,7 - 0 -
09.12.2017 06:00:00 7,3 3,6 4 2 6 3 Z 1026,8 - 0 0,0
09.12.2017 05:00:00 7,3 2,7 2 1 6 4 W 1027,5 - 0 0,0
09.12.2017 04:00:00 6,3 1,9 0 0 8 4 N 1027,8 - 0 0,0
09.12.2017 03:00:00 6,0 1,9 6 3 9 5 Z 1027,9 - 0 0,0
09.12.2017 02:00:00 4,8 0,6 7 4 10 5 Z 1028,3 - 0 0,0
09.12.2017 01:00:00 5,7 1,1 6 4 9 5 Z 1028,6 - 0 -
09.12.2017 00:00:00 7,1 1,7 4 2 7 4 Z 1028,7 - 0 0,0
08.12.2017 23:00:00 8,7 0,6 4 2 16 9 W 1028,5 - 0 0,0
08.12.2017 22:00:00 9,7 -0,3 7 4 14 7 ZW 1028,3 - 0 0,0
08.12.2017 21:00:00 8,1 -1,0 8 4 12 6 ZW 1028,8 - 0 0,0
08.12.2017 20:00:00 8,0 -1,0 5 3 14 7 W 1028,7 - 0 0,0
08.12.2017 19:00:00 8,5 0,6 3 1 8 4 WZW 1028,1 - 0 -
08.12.2017 18:00:00 12,7 1,3 3 1 9 5 WNW 1027,2 - 16 0,0
08.12.2017 17:00:00 15,2 -4,2 5 3 15 8 N 1026,4 - 60 0,0
08.12.2017 16:00:00 15,4 -3,6 9 5 18 10 N 1027,0 - 60 0,0
08.12.2017 15:00:00 15,1 -2,7 9 5 20 11 N 1027,0 - 60 0,0
08.12.2017 14:00:00 14,7 -1,0 9 5 17 9 N 1027,6 - 60 0,0
08.12.2017 13:00:00 14,1 -2,0 6 4 12 6 N 1028,5 - 60 -
08.12.2017 12:00:00 12,9 2,1 4 2 11 6 Z 1029,3 - 60 0,0
08.12.2017 11:00:00 8,8 3,9 8 4 21 11 Z 1030,5 - 60 0,0
08.12.2017 10:00:00 4,8 3,4 12 6 20 11 Z 1030,8 - 60 0,0
08.12.2017 09:00:00 0,8 -0,3 3 2 7 4 ZO 1031,5 - 13 0,0
08.12.2017 08:00:00 1,4 0,2 5 3 9 5 Z 1031,0 - 0 0,0
08.12.2017 07:00:00 1,7 0,4 3 2 11 6 ZW 1030,6 - 0 -
08.12.2017 06:00:00 3,0 1,5 7 4 14 8 ZZW 1030,4 - 0 0,0
08.12.2017 05:00:00 3,5 2,1 3 2 18 10 ZZW 1030,5 - 0 0,0
08.12.2017 04:00:00 3,5 2,1 10 5 16 9 Z 1030,5 - 0 0,0
08.12.2017 03:00:00 4,0 2,7 9 5 13 7 Z 1030,7 - 0 0,0
08.12.2017 02:00:00 2,9 1,1 6 3 10 5 Z 1031,4 - 0 0,0
08.12.2017 01:00:00 5,2 2,5 4 2 16 8 ZZW 1031,0 - 0 -
08.12.2017 00:00:00 5,3 3,0 9 5 13 7 Z 1031,3 - 0 0,0
07.12.2017 23:00:00 2,8 1,3 9 5 12 6 Z 1031,9 - 0 0,0
07.12.2017 22:00:00 2,9 1,1 6 3 12 6 Z 1031,5 - 0 0,0
07.12.2017 21:00:00 3,3 1,3 6 3 10 5 Z 1031,7 - 0 0,0
07.12.2017 20:00:00 4,6 1,9 7 4 10 5 Z 1030,9 - 0 0,0
07.12.2017 19:00:00 6,7 2,5 5 3 8 4 Z 1030,3 - 0 -
07.12.2017 18:00:00 12,3 1,9 4 2 13 7 N 1029,1 - 18 0,0
07.12.2017 17:00:00 15,8 1,9 3 1 11 6 NNW 1028,3 - 60 0,0
07.12.2017 16:00:00 16,9 1,7 4 2 19 11 Z 1027,8 - 60 0,0
07.12.2017 15:00:00 16,7 3,8 8 4 16 9 ZZO 1027,9 - 60 0,0
07.12.2017 14:00:00 15,7 3,4 6 3 16 9 Z 1028,9 - 60 0,0
07.12.2017 13:00:00 14,1 3,2 9 5 19 11 Z 1030,2 - 60 -
07.12.2017 12:00:00 12,3 5,5 8 4 15 8 ZZW 1031,4 - 60 0,0
07.12.2017 11:00:00 8,1 3,9 2 1 6 4 NW 1032,2 - 60 0,0
07.12.2017 10:00:00 4,1 3,0 1 1 5 3 NNW 1032,6 - 60 0,0
07.12.2017 09:00:00 -0,2 -1,2 1 1 6 3 ZZW 1032,7 - 13 0,0
07.12.2017 08:00:00 -0,1 -1,2 2 1 6 3 ZZO 1032,3 - 0 0,0
07.12.2017 07:00:00 -0,2 -1,4 2 1 5 3 Z 1031,9 - 0 -
07.12.2017 06:00:00 0,6 -0,5 2 1 7 4 ZZO 1031,9 - 0 0,0
07.12.2017 05:00:00 1,6 0,4 3 1 6 3 ZZO 1031,9 - 0 0,0
07.12.2017 04:00:00 1,9 0,4 1 1 9 5 W 1032,1 - 0 0,0
07.12.2017 03:00:00 2,8 1,1 3 2 8 5 ZW 1032,3 - 0 0,0
07.12.2017 02:00:00 4,6 2,7 3 2 16 9 ZZO 1032,0 - 0 0,0
07.12.2017 01:00:00 4,9 3,2 5 3 11 6 Z 1032,2 - 0 -
07.12.2017 00:00:00 4,9 3,0 4 2 12 7 ZZO 1032,7 - 0 0,0

tt = temperatuur
td = dauwpunt
ff = windsnelheid
fx = windstoten
dd = windrichting
ppp = luchtdruk
vv = zicht
sd = Zonneschijnduur
rr = neerslag

Weerstations in de omgeving